Погода в Рожнове под Радхостем

Чехия     49°27′35″N   18°08′11″E
темп.,
°C
ветер,
м/с
пор.,
м/с
влажн.,
%
обл.,
%
осадки,
мм/ч
давл.,
гПа
погр.,
м
24 сентября, пт
пт2423:00+13ююз51563100 0.0 1012822
02:00+10ююз388278 0.0 1012239
05:00+12з51377100 0.0 10101167
08:00+11зсз61182100 0.2 1012986
11:00+13зсз695688 0.0 10131029
14:00+15зсз694486 0.0 10131415
17:00+14зсз585584 0.0 10141128
20:00+9вюв007915 0.0 101711
25 сентября, сб
сб2523:00+9ю227815 0.0 101817
02:00+11ю238190 0.0 101866
05:00+11ю2286100 0.0 101869
08:00+12ю238916 0.0 1018118
11:00+17юз356922 0.0 1019862
14:00+19зюз466274 0.0 10181209
17:00+18юз25670 0.0 1018810
20:00+13ююв22840 0.0 102024
26 сентября, вс
вс2623:00+13ююв22840 0.0 102019
02:00+12юв22865 0.0 102015
05:00+12юв2288100 0.0 102017
08:00+14юв2179100 0.0 102134
11:00+20ююз1256100 0.0 1020608
14:00+22ююз224980 0.0 10191155
17:00+21ююв126212 0.0 1018103
20:00+15ююв22795 0.0 101912
27 сентября, пн
пн2723:00+14юв22805 0.0 101920
02:00+14юв22805 0.0 101821
05:00+13юв227925 0.0 101819
08:00+15юв117414 0.0 101821
11:00+20сз1160100 0.0 1018508
14:00+20ссз2259100 0.0 1017833
17:00+19зсз237298 0.3 1017325
20:00+13зюз119484 0.3 101914
28 сентября, вт
вт2823:00+12юз1197100 0.0 102013
02:00+12ссз119998 0.0 102028
05:00+13ссв2398100 0.0 1020190
08:00+12с2497100 0.2 1021248
11:00+14с248284 0.0 1021590
14:00+17с356691 0.0 1021923
17:00+15ссв37715 0.0 1020696
20:00+10ссв22926 0.0 102126